OE5HMR-13 Weather Reports


time (UTC)temp
C
wind
direction
speed
KPH
gust
KPH
rain 1hr
cm
rain 24hr
cm
rain mn
cm
humidity
%
barometer
mb
20260502181618 16 0.0 0.0 0.00 0.00 0.00 28 1018.9
20260502180528 17 0.0 0.0 0.00 0.00 0.00 28 1018.9
20260502163533 21 0.0 0.0 0.00 0.00 0.00 26 1020.0
20260502162532 22 0.0 0.0 0.00 0.00 0.00 26 1020.0
20260502161535 22 0.0 0.0 0.00 0.00 0.00 26 1020.0
20260502160528 22 0.0 0.0 0.00 0.00 0.00 26 1020.0
20260502151529 23 0.0 0.0 0.00 0.00 0.00 27 1021.1
20260502150544 23 0.0 0.0 0.00 0.00 0.00 27 1021.1
20260502130527 22 0.0 0.0 0.00 0.00 0.00 27 1022.2
20260502123621 22 0.0 0.0 0.00 0.00 0.00 26 1022.2
20260502122530 22 0.0 0.0 0.00 0.00 0.00 25 1022.2
20260502121554 22 0.0 0.0 0.00 0.00 0.00 26 1022.2
20260502120526 22 0.0 0.0 0.00 0.00 0.00 27 1022.2
20260502115545 21 0.0 0.0 0.00 0.00 0.00 26 1022.2
20260502114532 21 0.0 0.0 0.00 0.00 0.00 26 1022.2
20260502113539 21 0.0 0.0 0.00 0.00 0.00 27 1022.2
20260502112531 20 0.0 0.0 0.00 0.00 0.00 26 1022.2
20260502111540 20 0.0 0.0 0.00 0.00 0.00 26 1022.2
20260502110538 21 0.0 0.0 0.00 0.00 0.00 26 1022.2
20260502105534 21 0.0 0.0 0.00 0.00 0.00 28 1022.2
20260502104527 20 0.0 0.0 0.00 0.00 0.00 28 1022.2
20260502103550 20 0.0 0.0 0.00 0.00 0.00 27 1022.2
20260502102530 20 0.0 0.0 0.00 0.00 0.00 28 1022.2
20260502101528 20 0.0 0.0 0.00 0.00 0.00 30 1022.2
20260502100526 19 0.0 0.0 0.00 0.00 0.00 31 1022.2
20260502090536 18 0.0 0.0 0.00 0.00 0.00 35 1023.2
20260502071535 15 0.0 0.0 0.00 0.00 0.00 52 1023.2
20260502070534 14 0.0 0.0 0.00 0.00 0.00 55 1023.2
20260502065537 13 0.0 0.0 0.00 0.00 0.00 57 1023.2
20260502064536 12 0.0 0.0 0.00 0.00 0.00 60 1023.2
20260502063527 11 0.0 0.0 0.00 0.00 0.00 66 1023.2
20260502062525 9 0.0 0.0 0.00 0.00 0.00 72 1023.2
20260502061530 8 0.0 0.0 0.00 0.00 0.00 72 1023.2
20260502060532 7 0.0 0.0 0.00 0.00 0.00 72 1023.2
20260502055534 6 0.0 0.0 0.00 0.00 0.00 71 1023.2
20260502054529 6 0.0 0.0 0.00 0.00 0.00 71 1023.2
20260502053706 5 0.0 0.0 0.00 0.00 0.00 71 1023.2
20260502052538 5 0.0 0.0 0.00 0.00 0.00 70 1022.2
20260502051531 5 0.0 0.0 0.00 0.00 0.00 71 1022.3
20260502050533 4 0.0 0.0 0.00 0.00 0.00 71 1023.2
20260502045531 4 0.0 0.0 0.00 0.00 0.00 70 1022.2
20260502044529 3 0.0 0.0 0.00 0.00 0.00 70 1022.2
20260502043530 3 0.0 0.0 0.00 0.00 0.00 70 1022.2
20260502042527 3 0.0 0.0 0.00 0.00 0.00 70 1022.2
20260502041538 3 0.0 0.0 0.00 0.00 0.00 70 1022.2
20260502040528 3 0.0 0.0 0.00 0.00 0.00 70 1022.2
20260502035536 2 0.0 0.0 0.00 0.00 0.00 70 1022.2
20260502034533 2 0.0 0.0 0.00 0.00 0.00 70 1022.2
20260502033526 2 0.0 0.0 0.00 0.00 0.00 70 1022.2
20260502032552 2 0.0 0.0 0.00 0.00 0.00 69 1022.2
20260502031527 2 0.0 0.0 0.00 0.00 0.00 68 1022.2
20260502030530 2 0.0 0.0 0.00 0.00 0.00 69 1023.2
20260502025527 2 0.0 0.0 0.00 0.00 0.00 68 1023.2
20260502024558 3 0.0 0.0 0.00 0.00 0.00 69 1023.2
20260502023547 2 0.0 0.0 0.00 0.00 0.00 68 1023.2
20260502022531 3 0.0 0.0 0.00 0.00 0.00 69 1023.2
20260502021550 2 0.0 0.0 0.00 0.00 0.00 70 1023.2
20260502020533 2 0.0 0.0 0.00 0.00 0.00 69 1023.2
20260502015528 2 0.0 0.0 0.00 0.00 0.00 69 1023.2
20260502014531 2 0.0 0.0 0.00 0.00 0.00 68 1023.2
20260502013603 2 0.0 0.0 0.00 0.00 0.00 67 1023.2
20260502012536 2 0.0 0.0 0.00 0.00 0.00 66 1023.2
20260502011527 3 0.0 0.0 0.00 0.00 0.00 66 1023.2
20260502010527 3 0.0 0.0 0.00 0.00 0.00 67 1023.2
20260502005531 3 0.0 0.0 0.00 0.00 0.00 67 1023.2
20260502004544 3 0.0 0.0 0.00 0.00 0.00 66 1023.2
20260502003553 3 0.0 0.0 0.00 0.00 0.00 66 1023.2
20260502002525 2 0.0 0.0 0.00 0.00 0.00 65 1023.2
20260502001527 3 0.0 0.0 0.00 0.00 0.00 64 1023.4
20260502000538 3 0.0 0.0 0.00 0.00 0.00 64 1024.3
20260501235533 3 0.0 0.0 0.00 0.00 0.00 64 1024.3
20260501234551 4 0.0 0.0 0.00 0.00 0.00 65 1024.3
20260501233549 3 0.0 0.0 0.00 0.00 0.00 65 1024.3
20260501232528 3 0.0 0.0 0.00 0.00 0.00 65 1024.3
20260501231525 3 0.0 0.0 0.00 0.00 0.00 65 1024.3
20260501230536 3 0.0 0.0 0.00 0.00 0.00 64 1024.3
20260501225524 3 0.0 0.0 0.00 0.00 0.00 64 1024.3
20260501224531 3 0.0 0.0 0.00 0.00 0.00 63 1024.3
20260501223536 3 0.0 0.0 0.00 0.00 0.00 63 1024.3
20260501222530 3 0.0 0.0 0.00 0.00 0.00 61 1023.2
20260501221534 3 0.0 0.0 0.00 0.00 0.00 60 1023.4
20260501220526 3 0.0 0.0 0.00 0.00 0.00 59 1024.3
20260501215529 3 0.0 0.0 0.00 0.00 0.00 58 1024.3
20260501214622 3 0.0 0.0 0.00 0.00 0.00 58 1024.3
20260501213527 4 0.0 0.0 0.00 0.00 0.00 58 1024.3
20260501212532 4 0.0 0.0 0.00 0.00 0.00 58 1024.3
20260501211524 4 0.0 0.0 0.00 0.00 0.00 58 1024.3
20260501210527 5 0.0 0.0 0.00 0.00 0.00 59 1024.3
20260501205540 5 0.0 0.0 0.00 0.00 0.00 59 1024.3
20260501204524 5 0.0 0.0 0.00 0.00 0.00 57 1024.3
20260501203530 5 0.0 0.0 0.00 0.00 0.00 58 1024.3
20260501202524 5 0.0 0.0 0.00 0.00 0.00 57 1024.3
20260501201525 5 0.0 0.0 0.00 0.00 0.00 57 1024.3
20260501200530 5 0.0 0.0 0.00 0.00 0.00 56 1024.3
20260501195547 6 0.0 0.0 0.00 0.00 0.00 55 1024.3
20260501194528 6 0.0 0.0 0.00 0.00 0.00 54 1024.3
20260501193524 7 0.0 0.0 0.00 0.00 0.00 53 1024.3
20260501192527 7 0.0 0.0 0.00 0.00 0.00 52 1024.3
20260501191542 7 0.0 0.0 0.00 0.00 0.00 49 1024.5
20260501190634 8 0.0 0.0 0.00 0.00 0.00 46 1025.4
20260501185526 9 0.0 0.0 0.00 0.00 0.00 45 1025.4
20260501184529 10 0.0 0.0 0.00 0.00 0.00 42 1025.3
20260501183524 11 0.0 0.0 0.00 0.00 0.00 41 1024.3
20260501182540 12 0.0 0.0 0.00 0.00 0.00 40 1024.3